Location: C�mpuri de-Sus
(45.9500°N, 22.5500°E)
Time: 05:13:01
(UTC+00:00)

Cosmos 1140 Rocket - Pass Details

Date: 24 October 2021
Orbit: 743 x 768 km, 74.1° (Epoch: 04 December)

Event Time Altitude Azimuth Distance (km) Brightness Sun altitude
Rises 18:13:32 0° 335° (NNW) 3,219 7.2 -29.2°
Reaches altitude 10° 18:15:56 10° 332° (NNW) 2,294 6.4 -29.7°
Enters shadow 18:20:36 57° 276° (W) 895 4.0 -30.4°
